Find Kosmos-1412

NORAD ID: 13600 Int'l Des: 1982-099 Owner: VMF Country: SU operational
LEOCIRCULAR

实时位置

正在加载3D地球...

关于 Kosmos-1412

正在加载描述...

即将过境

Passes for default location (London). Set your location on the main map for personalized predictions.

高度历史

Loading altitude history...

两行轨道根数

1 13600U 82099A 26105.89316917 -.00000054 00000-0 30945-4 0 9991
2 13600 64.8132 163.8449 0044505 39.3647 132.5968 13.86380820191061
Epoch: Apr 15, 2026 • Age: 9 hours

当前状态

高度 971.0 km
速度 7.35 km/s
星下点 -4.99°S, 48.5°E
发射日期 Oct 2, 1982
运行时间 43.5 years
类型 other

技术详情

分类 Payload
质量 1154.00 kg
干质量 1154.00 kg
总质量 4300.00 kg
长度 5.80 m
直径 1.30 m
跨度 5.80 m
形状 Cyl
制造商 KOMET
平台类型 US-A reactor
阶段状态 In Orbit
所有者/国家 VMF/SU

Most Searched